Location: Newark
(47.5000°N, 4.6167°E)
Time: 01:26:45
(UTC+00:00)

ISS - Pass Details

Date: 17 May 2021
Orbit: 417 x 422 km, 51.6° (Epoch: 14 June)

Event Time Altitude Azimuth Distance (km) Brightness Sun altitude
Rises 00:03:24 0° 290° (WNW) 2,371 0.2 -22.9°
Reaches altitude 10° 00:05:34 10° 296° (WNW) 1,506 -0.7 -22.9°
Maximum altitude 00:08:51 47° 12° (NNE) 570 -2.7 -22.8°
Drops below altitude 10° 00:12:08 10° 88° (E) 1,506 -0.8 -22.7°
Sets 00:14:17 0° 94° (E) 2,370 0.1 -22.7°
